• In Deutschland
  • Länderverzeichnis
  • Für 7 Tage
  • Wassertemperatur
  • Satellitenkarten
  • Wetterkarte
  • Widgets
  • user-avatar
    Anmelden

    Stündliche Wetter Mykhalkove

    Heute, 21 Juli, Samstag

    Zeit Temperatur Niederschläge Wind Luftdruck Luftfeuchtigkeit
    00:00 +20°C° 0 mm 3 m/S 741 mmHg 90%
    01:00 +20°C° 0 mm 3 m/S 741 mmHg 92%
    02:00 +19°C° 0 mm 2 m/S 741 mmHg 93%
    03:00 +19°C° 0 mm 2 m/S 741 mmHg 94%
    04:00 +19°C° 0 mm 2 m/S 741 mmHg 94%
    05:00 +19°C° 0 mm 3 m/S 742 mmHg 94%
    06:00 +20°C° 0 mm 3 m/S 742 mmHg 88%
    07:00 +22°C° 0 mm 3 m/S 742 mmHg 82%
    08:00 +25°C° 0 mm 4 m/S 742 mmHg 76%
    09:00 +26°C° 0 mm 4 m/S 742 mmHg 70%
    10:00 +27°C° 0 mm 4 m/S 742 mmHg 64%
    11:00 +28°C° 0 mm 4 m/S 742 mmHg 58%
    12:00 +29°C° 0,3 mm 4 m/S 742 mmHg 57%
    13:00 +29°C° 0,3 mm 5 m/S 742 mmHg 56%
    14:00 +29°C° 0 mm 4 m/S 742 mmHg 54%
    15:00 +29°C° 0,2 mm 4 m/S 742 mmHg 55%
    16:00 +29°C° 0,2 mm 4 m/S 742 mmHg 56%
    17:00 +29°C° 0,2 mm 5 m/S 742 mmHg 57%
    18:00 +27°C° 0,1 mm 4 m/S 742 mmHg 63%
    19:00 +26°C° 0,1 mm 3 m/S 742 mmHg 69%
    20:00 +24°C° 0,1 mm 3 m/S 742 mmHg 75%
    21:00 +22°C° 0,2 mm 3 m/S 743 mmHg 78%
    22:00 +23°C° 0,2 mm 2 m/S 743 mmHg 81%
    23:00 +21°C° 0,2 mm 2 m/S 743 mmHg 84%

    Morgen, 22 Juli, Sonntag

    Zeit Temperatur Niederschläge Wind Luftdruck Luftfeuchtigkeit
    00:00 +21°C° 0 mm 2 m/S 743 mmHg 86%
    01:00 +20°C° 0 mm 2 m/S 743 mmHg 88%
    02:00 +20°C° 0 mm 3 m/S 743 mmHg 90%
    03:00 +19°C° 0 mm 3 m/S 743 mmHg 90%
    04:00 +19°C° 0 mm 2 m/S 743 mmHg 91%
    05:00 +19°C° 0 mm 2 m/S 743 mmHg 91%
    06:00 +20°C° 0 mm 3 m/S 743 mmHg 85%
    07:00 +22°C° 0 mm 3 m/S 743 mmHg 78%
    08:00 +25°C° 0 mm 3 m/S 743 mmHg 71%
    09:00 +26°C° 0 mm 4 m/S 743 mmHg 65%
    10:00 +27°C° 0 mm 4 m/S 743 mmHg 59%
    11:00 +29°C° 0 mm 4 m/S 743 mmHg 53%
    12:00 +29°C° 0 mm 4 m/S 742 mmHg 51%
    13:00 +30°C° 0 mm 4 m/S 742 mmHg 50%
    14:00 +30°C° 0 mm 4 m/S 742 mmHg 48%
    15:00 +30°C° 0 mm 4 m/S 742 mmHg 49%
    16:00 +30°C° 0 mm 4 m/S 741 mmHg 50%
    17:00 +29°C° 0 mm 4 m/S 741 mmHg 51%
    18:00 +28°C° 0,1 mm 3 m/S 741 mmHg 58%
    19:00 +26°C° 0,1 mm 3 m/S 741 mmHg 64%
    20:00 +24°C° 0,1 mm 2 m/S 741 mmHg 70%
    21:00 +24°C° 0 mm 2 m/S 741 mmHg 73%
    22:00 +23°C° 0 mm 2 m/S 741 mmHg 77%
    23:00 +22°C° 0 mm 1 m/S 741 mmHg 80%

    übermorgen, 23 Juli, Montag

    Zeit Temperatur Niederschläge Wind Luftdruck Luftfeuchtigkeit
    00:00 +21°C° 0 mm 2 m/S 741 mmHg 82%
    01:00 +20°C° 0 mm 2 m/S 741 mmHg 84%
    02:00 +20°C° 0 mm 2 m/S 741 mmHg 87%
    03:00 +19°C° 0 mm 2 m/S 741 mmHg 88%
    04:00 +19°C° 0 mm 2 m/S 741 mmHg 89%
    05:00 +19°C° 0 mm 2 m/S 741 mmHg 91%
    06:00 +20°C° 0 mm 2 m/S 741 mmHg 84%
    07:00 +23°C° 0 mm 2 m/S 741 mmHg 77%
    08:00 +25°C° 0 mm 3 m/S 741 mmHg 71%
    09:00 +26°C° 0,2 mm 3 m/S 740 mmHg 66%
    10:00 +27°C° 0,2 mm 3 m/S 740 mmHg 61%
    11:00 +28°C° 0,2 mm 3 m/S 740 mmHg 56%
    12:00 +28°C° 1 mm 3 m/S 740 mmHg 56%
    13:00 +28°C° 1 mm 4 m/S 740 mmHg 57%
    14:00 +28°C° 1 mm 4 m/S 739 mmHg 58%
    15:00 +28°C° 0,3 mm 3 m/S 739 mmHg 59%
    16:00 +28°C° 0,3 mm 3 m/S 739 mmHg 60%
    17:00 +27°C° 0,3 mm 2 m/S 739 mmHg 62%
    18:00 +26°C° 0,1 mm 2 m/S 739 mmHg 66%
    19:00 +25°C° 0,1 mm 1 m/S 739 mmHg 71%
    20:00 +24°C° 0,1 mm 1 m/S 739 mmHg 76%
    21:00 +23°C° 0 mm 1 m/S 739 mmHg 78%
    22:00 +23°C° 0 mm 1 m/S 739 mmHg 80%
    23:00 +20°C° 0 mm 0 m/S 739 mmHg 82%

    24 Juli, Dienstag

    Zeit Temperatur Niederschläge Wind Luftdruck Luftfeuchtigkeit
    00:00 +20°C° 0 mm 0 m/S 739 mmHg 83%
    01:00 +19°C° 0 mm 0 m/S 739 mmHg 84%
    02:00 +19°C° 0 mm 0 m/S 739 mmHg 85%
    03:00 +19°C° 0,3 mm 0 m/S 739 mmHg 86%
    04:00 +21°C° 0,3 mm 1 m/S 739 mmHg 87%
    05:00 +21°C° 0,3 mm 1 m/S 739 mmHg 87%
    06:00 +22°C° 0,6 mm 1 m/S 739 mmHg 84%
    07:00 +23°C° 0,6 mm 2 m/S 740 mmHg 81%
    08:00 +24°C° 0,6 mm 2 m/S 740 mmHg 77%
    09:00 +26°C° 1,3 mm 2 m/S 740 mmHg 70%
    10:00 +27°C° 1,3 mm 2 m/S 740 mmHg 63%
    11:00 +29°C° 1,3 mm 2 m/S 740 mmHg 56%
    12:00 +29°C° 0,4 mm 2 m/S 740 mmHg 54%
    13:00 +30°C° 0,4 mm 2 m/S 740 mmHg 52%
    14:00 +30°C° 0,4 mm 2 m/S 740 mmHg 50%
    15:00 +30°C° 0,4 mm 2 m/S 740 mmHg 53%
    16:00 +30°C° 0,4 mm 2 m/S 740 mmHg 55%
    17:00 +29°C° 0,4 mm 1 m/S 740 mmHg 58%
    18:00 +28°C° 0,2 mm 2 m/S 740 mmHg 61%
    19:00 +27°C° 0,2 mm 2 m/S 740 mmHg 64%
    20:00 +26°C° 0,2 mm 2 m/S 740 mmHg 67%
    21:00 +25°C° 1 mm 2 m/S 740 mmHg 69%
    22:00 +24°C° 1 mm 2 m/S 740 mmHg 71%
    23:00 +24°C° 1 mm 2 m/S 740 mmHg 73%

    25 Juli, Mittwoch

    Zeit Temperatur Niederschläge Wind Luftdruck Luftfeuchtigkeit
    00:00 +23°C° 0,7 mm 2 m/S 740 mmHg 76%
    01:00 +21°C° 0,7 mm 2 m/S 741 mmHg 80%
    02:00 +21°C° 0,7 mm 2 m/S 741 mmHg 84%
    03:00 +21°C° 0,3 mm 2 m/S 741 mmHg 84%
    04:00 +20°C° 0,3 mm 2 m/S 741 mmHg 85%
    05:00 +20°C° 0,3 mm 2 m/S 741 mmHg 86%
    06:00 +23°C° 0 mm 2 m/S 741 mmHg 81%
    07:00 +24°C° 0 mm 3 m/S 741 mmHg 76%
    08:00 +26°C° 0 mm 3 m/S 742 mmHg 71%
    09:00 +27°C° 0,7 mm 3 m/S 742 mmHg 65%
    10:00 +29°C° 0,7 mm 3 m/S 742 mmHg 59%
    11:00 +30°C° 0,7 mm 2 m/S 742 mmHg 53%
    12:00 +31°C° 0 mm 2 m/S 742 mmHg 50%
    13:00 +31°C° 0 mm 2 m/S 742 mmHg 47%
    14:00 +32°C° 0 mm 2 m/S 742 mmHg 45%
    15:00 +32°C° 0 mm 2 m/S 742 mmHg 47%
    16:00 +32°C° 0 mm 2 m/S 742 mmHg 49%
    17:00 +31°C° 0 mm 2 m/S 742 mmHg 51%
    18:00 +30°C° 0,1 mm 2 m/S 742 mmHg 55%
    19:00 +28°C° 0,1 mm 2 m/S 742 mmHg 60%
    20:00 +27°C° 0,1 mm 2 m/S 742 mmHg 64%
    21:00 +26°C° 0,1 mm 2 m/S 742 mmHg 67%
    22:00 +25°C° 0,1 mm 3 m/S 742 mmHg 70%
    23:00 +24°C° 0,1 mm 3 m/S 742 mmHg 73%

    26 Juli, Donnerstag

    Zeit Temperatur Niederschläge Wind Luftdruck Luftfeuchtigkeit
    00:00 +24°C° 0,2 mm 2 m/S 742 mmHg 76%
    01:00 +23°C° 0,2 mm 2 m/S 742 mmHg 78%
    02:00 +23°C° 0,2 mm 2 m/S 742 mmHg 81%
    03:00 +23°C° 0,1 mm 2 m/S 742 mmHg 82%
    04:00 +21°C° 0,1 mm 2 m/S 743 mmHg 83%
    05:00 +21°C° 0,1 mm 2 m/S 743 mmHg 84%
    06:00 +24°C° 0 mm 2 m/S 743 mmHg 79%
    07:00 +26°C° 0 mm 3 m/S 743 mmHg 75%
    08:00 +27°C° 0 mm 3 m/S 743 mmHg 70%
    09:00 +28°C° 0,2 mm 3 m/S 743 mmHg 64%
    10:00 +30°C° 0,2 mm 3 m/S 743 mmHg 59%
    11:00 +31°C° 0,2 mm 3 m/S 743 mmHg 53%
    12:00 +33°C° 0 mm 3 m/S 743 mmHg 51%
    13:00 +33°C° 0 mm 3 m/S 744 mmHg 49%
    14:00 +34°C° 0 mm 3 m/S 744 mmHg 46%
    15:00 +33°C° 0 mm 3 m/S 744 mmHg 49%
    16:00 +33°C° 0 mm 3 m/S 744 mmHg 51%
    17:00 +33°C° 0 mm 3 m/S 744 mmHg 53%
    18:00 +30°C° 0 mm 3 m/S 744 mmHg 59%
    19:00 +28°C° 0 mm 3 m/S 744 mmHg 66%
    20:00 +27°C° 0 mm 3 m/S 744 mmHg 72%
    21:00 +26°C° 0,1 mm 3 m/S 744 mmHg 74%
    22:00 +25°C° 0,1 mm 3 m/S 744 mmHg 77%
    23:00 +25°C° 0,1 mm 3 m/S 744 mmHg 79%
    Mehr zeigen